x

Fairport, Mi (fptm4) Weather Station

7:40pm - Thu 8th Dec 2016 All times are CST. -6 hours from GMT.

  • Wind
    13mph, 20mph gusts
  • Air Temp 27°f
  • Sea Pressure 1022.7mb
  • Fairport, Mi
  • Fairport, Mi

More Historic Weather Station data

Upgrade to MSW Pro to gain access to the past 30 days of data for over 8000 Wavebouys and Weather Stations around the globe.

Join Pro

Comparision Forecast

View Surf forecast
   
Thu 12/08 7:40pm 13 20 mph 1022.7mb 27f
7:30pm 11 21 mph 1022.7mb 27f
7:20pm 14 22 mph 1022.7mb 27f
7:10pm 10 22 mph 1022.7mb 27f
7:01pm 11 26 mph 1022.4mb 28f
7:00pm 11 17 mph 1022.7mb 28f
6:40pm 8 18 mph 1022.4mb 28f
6:30pm 11 17 mph 1022.4mb 28f
6:20pm 11 26 mph 1022.4mb 28f
6:10pm 13 20 mph 1022mb 28f
6:01pm 9 25 mph 1022mb 28f
6:00pm 9 20 mph 1022mb 28f
5:40pm 11 24 mph 1021.7mb 29f
5:30pm 14 17 mph 1021.7mb 29f
5:20pm 10 17 mph 1021.3mb 29f
5:10pm 14 17 mph 1021.3mb 29f
5:00pm 9 16 mph 1021.3mb 29f
4:40pm 14 18 mph 1021mb 28f
4:30pm 8 16 mph 1021mb 28f
4:20pm 8 16 mph 1021mb 28f
4:10pm 8 20 mph 1020.7mb 28f
4:00pm 14 24 mph 1020.7mb 29f
3:40pm 16 22 mph 1020mb 30f
3:30pm 6 16 mph 1019.6mb 30f
3:20pm 10 23 mph 1019.6mb 31f
3:10pm 11 20 mph 1019.3mb 32f
3:00pm 13 22 mph 1019mb 31f
2:40pm 10 18 mph 1018.6mb 31f
2:30pm 13 17 mph 1018.6mb 31f
2:20pm 8 16 mph 1018.3mb 31f
2:10pm 10 16 mph 1018.3mb 30f
2:00pm 10 22 mph 1018.3mb 30f
1:40pm 11 20 mph 1017.6mb 31f
1:30pm 9 22 mph 1017.6mb 31f
1:20pm 10 18 mph 1017.3mb 31f
1:10pm 11 17 mph 1017.3mb 31f
1:00pm 11 17 mph 1017.3mb 30f
12:40pm 14 22 mph 1016.9mb 31f
12:30pm 14 24 mph 1016.6mb 31f
12:20pm 13 21 mph 1016.3mb 31f
12:10pm 15 18 mph 1016.3mb 31f
12:00pm 16 22 mph 1016.3mb 31f
11:40am 14 21 mph 1016.3mb 31f
11:30am 15 23 mph 1016.3mb 31f
11:20am 11 24 mph 1015.9mb 31f
11:10am 16 21 mph 1015.9mb 31f
11:00am 17 22 mph 1015.6mb 30f
10:40am 20 26 mph 1015.6mb 29f
10:30am 18 24 mph 1015.6mb 29f
10:20am 20 25 mph 1015.6mb 29f
10:10am 18 24 mph 1015.2mb 29f
10:00am 16 26 mph 1015.2mb 28f
9:40am 17 24 mph 1014.9mb 28f
9:30am 16 25 mph 1014.9mb 27f
9:20am 17 24 mph 1014.9mb 27f
9:10am 17 26 mph 1014.6mb 26f
9:00am 20 29 mph 1014.2mb 26f
8:40am 21 30 mph 1013.9mb 26f
8:30am 21 31 mph 1013.9mb 26f
8:23am 24 31 mph 1013.5mb 26f
8:20am 23 29 mph 1013.5mb 26f
8:10am 24 30 mph 1013.5mb 26f
8:00am 34
mph
1012.5mb 25f
7:40am 26 33 mph 1012.9mb 26f
7:30am 26 33 mph 1012.5mb 26f
7:20am 26 33 mph 1012.5mb 25f
7:15am 29
mph
1012.5mb 25f
7:10am 29 36 mph 1012.5mb 25f
7:08am 30
mph
1012.5mb 25f
7:00am 29 32 mph 1012.5mb 25f
6:40am 29 33 mph 1012.2mb 25f
6:30am 26 32 mph 1012.5mb 25f
6:20am 28 32 mph 1012.5mb 25f
6:14am 25 30 mph 1012.2mb 25f
6:10am 26 31 mph 1012.2mb 25f
6:00am 26 32 mph 1012.2mb 25f
5:40am 26 32 mph 1012.2mb 25f
5:30am 28 33 mph 1011.9mb 25f
5:20am 28 33 mph 1012.2mb 25f
5:12am 28 32 mph 1011.5mb 25f
5:10am 29 33 mph 1011.5mb 25f
5:00am 28 34 mph 1011.9mb 25f
4:40am 30 33 mph 1011.5mb 26f
4:30am 28 33 mph 1011.5mb 25f
4:20am 26 31 mph 1011.5mb 26f
4:11am 26 31 mph 1011.5mb 26f
4:10am 26 34 mph 1011.5mb 26f
4:07am 28
mph
1011.5mb 26f
4:00am 28 34 mph 1011.5mb 26f
3:40am 25 31 mph 1011.9mb 26f
3:30am 28 32 mph 1011.5mb 26f
3:20am 29 33 mph 1011.5mb 26f
3:10am 29
mph
1011.5mb 26f
3:06am 26
mph
1011.5mb 26f
3:00am 30 33 mph 1011.5mb 26f
2:40am 25 34 mph 1011.9mb 26f
2:30am 28 32 mph 1011.5mb 26f
2:20am 24 34 mph 1011.5mb 27f
2:10am 28 34 mph 1011.5mb 27f
2:09am 26 30 mph 1011.5mb 26f
2:00am 24 31 mph 1011.5mb 27f
1:40am 25 30 mph 1011.5mb 26f
1:30am 25 34 mph 1011.5mb 26f
1:20am 24 32 mph 1011.5mb 27f
1:10am 28 31 mph 1011.2mb 26f
1:08am 28 29 mph 1011.5mb 26f
1:00am 26 36 mph 1011.5mb 26f
12:40am 28 33 mph 1011.9mb 26f
12:30am 29 34 mph 1011.5mb 26f
12:20am 29 36 mph 1011.5mb 26f
12:10am 29 37 mph 1011.5mb 26f
12:07am 28 29 mph 1011.5mb 26f
12:00am 28 33 mph 1011.9mb 26f
Wed 12/07 11:40pm 28 37 mph 1011.5mb 26f
11:30pm 26 34 mph 1011.5mb 26f
11:20pm 29 33 mph 1011.5mb 27f
11:10pm 26 33 mph 1011.9mb 27f
11:07pm 28 30 mph 1011.5mb 27f
11:00pm 25 33 mph 1011.9mb 27f
10:40pm 28 36 mph 1011.5mb 27f
10:30pm 26 33 mph 1011.9mb 27f
10:20pm 29 34 mph 1011.5mb 27f
10:10pm 26 33 mph 1011.5mb 27f
10:06pm 29
mph
1011.5mb 27f
10:00pm 28 33 mph 1011.5mb 27f
9:40pm 26 31 mph 1011.9mb 27f
9:30pm 23 28 mph 1011.5mb 28f
9:20pm 24 29 mph 1011.5mb 27f
9:10pm 22 30 mph 1011.5mb 27f
9:05pm 25 30 mph 1011.2mb 27f
9:00pm 23 28 mph 1011.5mb 27f
8:40pm 24 30 mph 1011.5mb 27f
8:30pm 23 31 mph 1011.5mb 27f
8:20pm 21 31 mph 1011.5mb 27f
8:10pm 23 32 mph 1011.2mb 28f
8:03pm 28
mph
1011.2mb 28f
8:00pm 23 31 mph 1011.5mb 28f
7:50pm 26 31 mph 1011.5mb 27f
7:40pm 26 33 mph 1011.2mb 27f
7:30pm 28 32 mph 1011.5mb 28f
7:20pm 28 33 mph 1011.2mb 28f
7:10pm 25 37 mph 1011.2mb 28f
7:03pm 28
mph
1011.2mb 28f
7:00pm 26 36 mph 1011.2mb 28f
6:50pm 25 33 mph 1011.9mb 28f
6:40pm 23 33 mph 1010.8mb 28f
6:30pm 24 33 mph 1010.8mb 28f
6:20pm 24 30 mph 1010.8mb 28f
6:10pm 25 32 mph 1010.8mb 28f
6:02pm 25
mph
1010.8mb 28f
6:00pm 24 30 mph 1010.8mb 28f
5:50pm 24 30 mph 1011.2mb 28f
5:40pm 25 31 mph 1010.5mb 28f
5:30pm 24 29 mph 1010.5mb 28f
5:20pm 23 30 mph 1010.8mb 28f
5:10pm 24 31 mph 1010.8mb 28f
5:02pm 24
mph
1010.5mb 28f
5:00pm 23 30 mph 1010.5mb 28f
4:50pm 21 31 mph 1011.2mb 28f
4:40pm 23 30 mph 1010.2mb 28f
4:30pm 25 28 mph 1010.5mb 28f
4:20pm 22 28 mph 1010.5mb 29f
4:10pm 20 29 mph 1010.5mb 29f
4:01pm 22 29 mph 1010.5mb 29f
4:00pm 22 26 mph 1010.5mb 29f
3:50pm 18 25 mph 1010.8mb 28f
3:40pm 21 28 mph 1010.2mb 29f
3:30pm 23 29 mph 1009.8mb 29f
3:20pm 22 26 mph 1009.8mb 29f
3:10pm 21 28 mph 1009.8mb 28f
3:01pm 21
mph
1009.8mb 29f
3:00pm 21 25 mph 1009.8mb 29f
2:50pm 22 30 mph 1009.8mb 28f
2:40pm 17 24 mph 1009.5mb 28f
2:30pm 17 25 mph 1009.5mb 28f
2:20pm 20 24 mph 1009.5mb 28f
2:10pm 22 29 mph 1009.5mb 28f
2:05pm 18 29 mph 1009.1mb 28f
2:00pm 23 28 mph 1009.1mb 28f
1:50pm 21 26 mph 1009.5mb 28f
1:40pm 20 30 mph 1008.8mb 28f
1:30pm 23 29 mph 1008.8mb 28f
1:20pm 23 30 mph 1008.8mb 28f
1:10pm 23 32 mph 1009.1mb 28f
1:00pm 24
mph
1009.1mb 28f
12:50pm 24 30 mph 1009.5mb 28f
12:40pm 23 30 mph 1009.1mb 28f
12:30pm 25 31 mph 1009.1mb 28f
12:20pm 21 33 mph 1009.1mb 28f
12:10pm 22 33 mph 1009.1mb 28f
12:00pm 24
mph
1009.1mb 28f
11:50am 22 31 mph 1009.5mb 28f
11:40am 21 28 mph 1009.1mb 28f
11:30am 24 28 mph 1009.1mb 27f
11:20am 23 28 mph 1009.1mb 27f
11:10am 23 26 mph 1009.5mb 27f
11:00am 22 28 mph 1009.5mb 26f
10:50am 23 28 mph 1009.8mb 26f
10:40am 21 30 mph 1009.5mb 27f
10:30am 25 31 mph 1009.5mb 27f
10:21am 24 30 mph 1009.1mb 27f
10:20am 24 29 mph 1009.8mb 27f
10:10am 22 31 mph 1009.8mb 27f
10:00am 25 30 mph 1009.5mb 27f
9:50am 24 29 mph 1009.8mb 27f
9:40am 25 30 mph 1009.1mb 27f
9:30am 24 31 mph 1009.1mb 27f
9:20am 24
mph
1009.5mb 27f
9:10am 23 31 mph 1009.1mb 27f
9:06am 22 31 mph 1009.1mb 27f
9:00am 24 30 mph 1009.5mb 27f
8:50am 23 29 mph 1009.8mb 27f
8:40am 23 30 mph 1009.1mb 27f
8:30am 24 33 mph 1009.5mb 27f
8:20am 29 34 mph 1009.1mb 27f
8:10am 28 33 mph 1009.5mb 27f
8:01am 25
mph
1008.8mb 27f
8:00am 25 34 mph 1009.1mb 27f
7:50am 29 33 mph 1008.8mb 27f
7:40am 25 33 mph 1008.5mb 26f
7:30am 26 36 mph 1008.5mb 27f
7:20am 29 34 mph 1008.5mb 27f
7:10am 25 36 mph 1008.8mb 27f
7:01am 24
mph
1008.5mb 27f
7:00am 24 36 mph 1008.5mb 27f
6:50am 29 36 mph 1008.5mb 27f
6:40am 24 30 mph 1008.1mb 28f
6:30am 24 36 mph 1008.1mb 28f
6:20am 31 37 mph 1007.8mb 28f
6:10am 26 36 mph 1007.5mb 28f
6:00am 26
mph
1007.5mb 28f
5:50am 23 29 mph 1007.5mb 29f
5:40am 26 34 mph 1007.5mb 29f
5:30am 23 32 mph 1007.5mb 29f
5:20am 23 34 mph 1007.1mb 29f
5:10am 30 34 mph 1007.1mb 29f
5:00am 28 34 mph 1006.8mb 29f
4:50am 24 31 mph 1007.1mb 29f
4:40am 26 32 mph 1006.8mb 29f
4:30am 23 30 mph 1006.8mb 29f
4:20am 23 34 mph 1006.4mb 29f
4:10am 24 37 mph 1006.8mb 29f
4:00am 29
mph
1006.8mb 29f
3:50am 25 34 mph 1007.1mb 29f
3:40am 25 31 mph 1006.8mb 29f
3:30am 25 34 mph 1006.8mb 29f
3:20am 23 32 mph 1006.8mb 30f
3:10am 28 34 mph 1006.8mb 29f
3:00am 28 34 mph 1006.8mb 30f
2:54am 24 30 mph 1006.4mb 29f
2:50am 22 36 mph 1006.8mb 29f
2:40am 23 33 mph 1006.8mb 30f
2:30am 22 33 mph 1006.8mb 30f
2:20am 28 36 mph 1006.8mb 29f
2:10am 26 37 mph 1006.8mb 29f
2:00am 28 34 mph 1006.8mb 30f
1:52am 26 30 mph 1006.4mb 30f
1:50am 25 31 mph 1006.8mb 30f
1:40am 26 37 mph 1006.4mb 29f
1:30am 30 37 mph 1006.4mb 30f
1:20am 24 30 mph 1006.4mb 29f
1:10am 23 32 mph 1006.4mb 30f
1:00am 23 31 mph 1006.1mb 29f
12:51am 25 30 mph 1006.1mb 29f
12:50am 25 31 mph 1006.1mb 29f
12:40am 25 34 mph 1006.1mb 29f
12:30am 23 32 mph 1005.8mb 29f
12:20am 24 34 mph 1005.8mb 29f
12:10am 26 37 mph 1006.1mb 29f
12:00am 28 36 mph 1005.4mb 29f
Tue 12/06 11:50pm 24 33 mph 1005.4mb 29f
11:40pm 32 37 mph 1005.4mb 29f
11:30pm 28 36 mph 1005.4mb 29f
11:20pm 24 32 mph 1005.4mb 29f
11:10pm 24 34 mph 1005.4mb 29f
11:00pm 25 33 mph 1005.4mb 29f
10:50pm 26 34 mph 1005.8mb 29f
10:49pm 25 30 mph 1005.4mb 30f
10:40pm 24 36 mph 1005.4mb 29f
10:30pm 26 33 mph 1005.1mb 30f
10:20pm 28 32 mph 1005.1mb 29f
10:10pm 30 36 mph 1005.1mb 30f
10:00pm 24 32 mph 1005.4mb 30f
9:50pm 24 30 mph 1005.1mb 30f
9:47pm 24 30 mph 1004.7mb 30f
9:40pm 26 33 mph 1004.7mb 30f
9:30pm 30 36 mph 1004.4mb 30f
9:20pm 30 33 mph 1004.4mb 31f
9:10pm 26 31 mph 1004.1mb 32f
9:00pm 25 31 mph 1004.1mb 33f
8:50pm 24 31 mph 1004.4mb 33f
8:40pm 23 31 mph 1003.7mb 33f
8:30pm 25 30 mph 1003.7mb 33f
8:20pm 25 31 mph 1003.7mb 34f
8:10pm 25 31 mph 1003.7mb 35f
8:00pm 25 30 mph 1003.4mb 35f
7:50pm 24 29 mph 1003.7mb 36f
6:50pm 23 30 mph 1003.4mb 37f
5:50pm 21 26 mph 1003.7mb 38f
5:40pm 23 28 mph 1003mb 38f
5:30pm 20 22 mph 1003.4mb 40f
5:20pm 16 20 mph 1003mb 40f
5:10pm 16 18 mph 1003.4mb 40f
5:00pm 17 21 mph 1003.4mb 40f
4:50pm 17 22 mph 1003.4mb 39f
4:40pm 17 21 mph 1003mb 39f
4:30pm 18 25 mph 1003.4mb 40f
4:20pm 23 26 mph 1003mb 40f
4:10pm 22 25 mph 1003.4mb 40f
4:00pm 21 23 mph 1003.4mb 40f
3:50pm 21 28 mph 1004.1mb 40f
3:40pm 21 25 mph 1003.7mb 40f
3:30pm 20 23 mph 1004.1mb 40f
3:20pm 18 22 mph 1004.1mb 40f
3:10pm 21 25 mph 1003.7mb 39f
3:00pm 20 24 mph 1004.4mb 39f
2:50pm 18 24 mph 1004.7mb 39f
2:40pm 23 29 mph 1004.4mb 40f
2:33pm 18 29 mph 1004.1mb 39f
2:30pm 20 24 mph 1004.4mb 39f
2:20pm 24 28 mph 1004.4mb 40f
2:10pm 23 26 mph 1004.4mb 40f
2:00pm 22 28 mph 1004.4mb 39f
1:50pm 23 26 mph 1004.7mb 39f
1:40pm 22 26 mph 1004.4mb 39f
1:30pm 20 24 mph 1004.4mb 39f
1:20pm 18 25 mph 1004.4mb 38f
1:10pm 17 26 mph 1004.4mb 39f
1:00pm 17 25 mph 1004.7mb 38f
12:50pm 18 24 mph 1005.1mb 38f
12:30pm 17 23 mph 1005.1mb 39f
12:20pm 18 23 mph 1005.4mb 39f
12:10pm 21 25 mph 1005.4mb 39f
12:00pm 20 26 mph 1006.1mb 39f
11:50am 22 26 mph 1006.8mb 39f
11:30am 20 24 mph 1007.1mb 40f
11:20am 18 24 mph 1007.1mb 40f
11:10am 16 20 mph 1007.1mb 40f
11:00am 18 25 mph 1007.5mb 40f
10:50am 20 23 mph 1007.5mb 40f
10:40am 20 24 mph 1007.5mb 40f
10:30am 21 25 mph 1007.5mb 40f
10:20am 21 25 mph 1007.8mb 40f
10:10am 18 24 mph 1008.1mb 40f
10:00am 20 24 mph 1008.1mb 40f
9:50am 18 23 mph 1008.8mb 40f
9:40am 18 24 mph 1008.5mb 40f
9:30am 18 21 mph 1008.8mb 40f
9:20am 18 21 mph 1008.8mb 40f
9:10am 20 22 mph 1009.1mb 40f
9:00am 17 20 mph 1009.1mb 40f
8:50am 16 21 mph 1009.5mb 40f
8:40am 14 18 mph 1009.5mb 40f
8:30am 15 18 mph 1009.5mb 40f
8:20am 15 18 mph 1009.1mb 40f
8:10am 15 17 mph 1009.5mb 40f
8:00am 11 18 mph 1009.8mb 40f
7:50am 15 20 mph 1009.8mb 40f
7:40am 16 20 mph 1009.8mb 40f
7:30am 15 21 mph 1010.2mb 40f
7:20am 15 20 mph 1010.2mb 40f
7:10am 16 22 mph 1010.2mb 40f
7:00am 17 26 mph 1010.5mb 40f
6:50am 15 18 mph 1010.8mb 40f
6:40am 18 20 mph 1010.5mb 40f
6:30am 17 22 mph 1010.8mb 41f
6:20am 17 20 mph 1010.5mb 41f
6:10am 15 18 mph 1010.5mb 41f
6:00am 16 23 mph 1010.5mb 41f
5:50am 18 22 mph 1010.8mb 41f
5:40am 16 23 mph 1010.5mb 42f
5:30am 21 25 mph 1010.5mb 42f
5:20am 23 26 mph 1010.5mb 42f
5:10am 22 28 mph 1010.5mb 42f
5:00am 23 28 mph 1010.5mb 43f
4:50am 24 26 mph 1010.8mb 42f
4:40am 21 25 mph 1010.5mb 42f
4:30am 22 25 mph 1010.8mb 42f
4:20am 23 25 mph 1010.8mb 42f
4:10am 21 23 mph 1011.2mb 42f
4:00am 21 24 mph 1011.5mb 42f
3:50am 17 20 mph 1012.2mb 42f
3:40am 15 20 mph 1011.9mb 42f
3:30am 14 20 mph 1011.9mb 42f
3:20am 16 21 mph 1012.2mb 43f
3:10am 21 23 mph 1011.9mb 43f
3:00am 20 24 mph 1012.2mb 43f
2:50am 15 18 mph 1012.5mb 44f
2:40am 14 16 mph 1012.2mb 44f
2:30am 14 17 mph 1012.2mb 44f
2:20am 14 18 mph 1012.5mb 44f
2:10am 15 18 mph 1012.5mb 44f
2:00am 10 14 mph 1012.5mb 43f
1:50am 11 13 mph 1012.9mb 43f
1:40am 8 10 mph 1012.2mb 42f
1:30am 8 11 mph 1012.2mb 42f
1:20am 6 8 mph 1012.2mb 42f
1:10am 8 14 mph 1012.2mb 42f
1:00am 11 21 mph 1012.2mb 42f
12:50am 10 21 mph 1012.5mb 40f
12:40am 14 17 mph 1011.9mb 40f
12:30am 15 17 mph 1012.2mb 40f
12:20am 11 13 mph 1012.9mb 40f
12:10am 8 10 mph 1013.2mb 39f
12:00am 8 28 mph 1013.5mb 39f
Mon 12/05 11:50pm 9 11 mph 1014.6mb 39f
11:40pm 10 11 mph 1013.9mb 39f
11:30pm 9 11 mph 1013.5mb 38f
11:20pm 8 13 mph 1014.2mb 38f
11:10pm 9 13 mph 1014.2mb 39f
11:00pm 10 14 mph 1014.2mb 39f
10:40pm 11 14 mph 1014.2mb 38f
10:30pm 10 13 mph 1014.2mb 38f
10:20pm 10 13 mph 1014.2mb 38f
10:10pm 10 11 mph 1014.2mb 38f
10:00pm 10 11 mph 1014.2mb 38f
9:50pm 8 10 mph 1014.2mb 38f
9:40pm 8 10 mph 1013.9mb 38f
9:30pm 8 11 mph 1013.9mb 38f
9:20pm 9 11 mph 1013.9mb 38f
9:10pm 9 11 mph 1013.9mb 38f
9:00pm 10 15 mph 1014.2mb 38f
8:50pm 13 16 mph 1014.6mb 38f
8:40pm 14 17 mph 1014.2mb 38f
8:30pm 13 15 mph 1014.2mb 38f
8:20pm 13 16 mph 1014.2mb 38f
8:10pm 15 17 mph 1014.2mb 38f
8:00pm 15 20 mph 1014.2mb 39f
7:50pm 18 21 mph 1014.6mb 39f
7:40pm 16 21 mph 1014.2mb 39f
7:30pm 15 21 mph 1014.2mb 39f
7:20pm 16 18 mph 1014.2mb 39f
7:10pm 13 16 mph 1014.2mb 39f
7:00pm 15 18 mph 1013.9mb 38f
6:50pm 14 17 mph 1014.2mb 38f
6:40pm 14 17 mph 1014.2mb 38f
6:30pm 16 18 mph 1014.2mb 38f
6:20pm 15 17 mph 1014.2mb 38f
6:10pm 15 18 mph 1014.6mb 38f
6:00pm 16 21 mph 1014.6mb 39f
5:50pm 17 22 mph 1014.6mb 39f
5:40pm 17 24 mph 1014.2mb 39f
5:30pm 20 23 mph 1013.9mb 39f
5:20pm 20 22 mph 1013.9mb 39f
5:10pm 17 20 mph 1013.5mb 38f
5:00pm 15 17 mph 1013.5mb 38f
4:50pm 14 20 mph 1013.9mb 38f
4:40pm 14 18 mph 1013.2mb 39f
4:30pm 14 17 mph 1013.2mb 39f
4:20pm 11 14 mph 1013.5mb 39f
4:10pm 14 15 mph 1013.5mb 39f
4:00pm 11 15 mph 1013.5mb 39f
3:50pm 13 15 mph 1013.9mb 39f
3:40pm 13 16 mph 1013.5mb 39f
3:30pm 14 15 mph 1013.2mb 39f
3:20pm 14 17 mph 1013.2mb 39f
3:10pm 13 16 mph 1013.2mb 40f
3:00pm 13 16 mph 1012.9mb 39f
2:50pm 14 16 mph 1013.2mb 40f
2:40pm 15 17 mph 1012.9mb 40f
2:30pm 13 17 mph 1012.9mb 39f
2:20pm 14 17 mph 1012.9mb 40f
2:10pm 14 16 mph 1012.5mb 40f
2:00pm 13 17 mph 1012.5mb 40f
1:50pm 14 18 mph 1012.9mb 40f
1:40pm 15 16 mph 1012.5mb 40f
1:30pm 11 18 mph 1012.5mb 40f
1:20pm 14 18 mph 1012.5mb 40f
1:10pm 14 17 mph 1012.9mb 40f
1:00pm 15 20 mph 1012.9mb 40f
12:50pm 15 20 mph 1012.9mb 40f
12:40pm 14 17 mph 1012.5mb 40f
12:30pm 14 17 mph 1012.2mb 40f
12:20pm 16 18 mph 1012.2mb 40f
12:10pm 15 20 mph 1011.9mb 40f
12:00pm 15 17 mph 1011.9mb 40f
11:50am 16 20 mph 1012.2mb 40f
11:40am 17 22 mph 1011.9mb 40f
11:30am 18 22 mph 1011.9mb 40f
11:20am 18 23 mph 1011.9mb 40f
11:10am 21 24 mph 1011.9mb 40f
11:00am 21 25 mph 1011.9mb 40f
10:50am 23 26 mph 1012.2mb 40f
10:40am 24 28 mph 1011.9mb 40f
10:30am 24 28 mph 1011.5mb 40f
10:20am 23 29 mph 1011.5mb 40f
10:10am 24 28 mph 1011.5mb 39f
10:00am 24 30 mph 1011.2mb 39f
9:50am 24 29 mph 1011.5mb 39f
9:40am 24 30 mph 1011.2mb 39f
9:30am 23 30 mph 1010.8mb 39f
9:20am 24 30 mph 1010.8mb 39f
9:10am 22 29 mph 1010.8mb 39f
9:00am 24 29 mph 1010.5mb 39f
8:50am 22 28 mph 1010.8mb 39f
8:40am 23 29 mph 1010.5mb 39f
8:30am 22 29 mph 1010.5mb 39f
8:20am 22 30 mph 1010.5mb 39f
8:13am 23 30 mph 1009.8mb 39f
8:10am 24 28 mph 1010.2mb 39f
8:00am 24 29 mph 1009.8mb 39f
7:50am 20 29 mph 1010.2mb 39f
7:40am 23 28 mph 1009.8mb 39f
7:30am 22 28 mph 1009.5mb 39f
7:20am 23 28 mph 1009.5mb 39f
7:10am 23 30 mph 1009.5mb 39f
7:00am 22 28 mph 1009.1mb 39f
6:50am 21 26 mph 1009.5mb 39f
6:40am 23 26 mph 1009.1mb 39f
6:30am 21 29 mph 1009.1mb 39f
6:23am 22 29 mph 1008.8mb 39f
6:20am 21 28 mph 1008.8mb 39f
6:10am 21 28 mph 1008.8mb 38f
6:00am 23
mph
1008.5mb 39f
5:50am 24 31 mph 1008.8mb 39f
5:40am 24 30 mph 1008.5mb 39f
5:30am 22 30 mph 1008.1mb 39f
5:20am 24 30 mph 1008.1mb 38f
5:13am 24 30 mph 1007.8mb 38f
5:10am 23 26 mph 1008.1mb 38f
5:00am 23 28 mph 1008.1mb 38f
4:50am 22 29 mph 1008.1mb 37f
4:40am 24 26 mph 1008.1mb 37f
4:30am 20 24 mph 1008.1mb 37f
4:20am 21 25 mph 1007.8mb 37f
4:10am 21 26 mph 1007.8mb 37f
4:00am 20 25 mph 1008.1mb 37f
3:50am 20 25 mph 1008.1mb 37f
3:40am 22 26 mph 1008.1mb 37f
3:30am 22 25 mph 1007.8mb 37f
3:20am 20 24 mph 1007.8mb 36f
3:10am 20 24 mph 1007.8mb 36f
3:00am 17 22 mph 1007.8mb 36f
2:50am 18 22 mph 1008.1mb 36f
2:40am 17 24 mph 1007.8mb 36f